Weather History for LGKL - February, 2013

Change the Weather History Date:

Tuesday, February 5, 2013

  Actual Average Record
Temperature  
Mean Temperature 57 °F -  
Max Temperature 68 °F 60 °F - ()
Min Temperature 46 °F 42 °F - ()
Degree Days  
Heating Degree Days 8    
Growing Degree Days 7 (Base 50)    
Moisture  
Dew Point 47 °F    
Average Humidity 70    
Maximum Humidity 93    
Minimum Humidity 46    
Precipitation  
Precipitation 0.00 in 0.13 in - ()
Sea Level Pressure  
Sea Level Pressure 29.87 in    
Wind  
Wind Speed 3 mph ()    
Max Wind Speed 8 mph    
Max Gust Speed -    
Visibility 5.5 miles    
Events      
T = Trace of Precipitation, MM = Missing Value Source: Averaged Metar Reports

Daily Weather History Graph

Daily Weather History Graph

Search for Another Location

Airport or City:

Trip Planner

Search our weather history database for the weather conditions in past years. The results will help you decide how hot, cold, wet, or windy it might be!

Date:

Astronomy

Feb. 05, 2013 Rise Set
Actual Time 7:31 AM EET 6:01 PM EET
Civil Twilight 7:03 AM EET 6:28 PM EET
Nautical Twilight 6:33 AM EET 6:59 PM EET
Astronomical Twilight 6:02 AM EET 7:29 PM EET
Moon 2:50 AM EET (2/5) 1:03 PM EET (2/5)
Length of Visible Light 11h 24m
Length of Day
10h 30m
Waning Crescent, 30% of the Moon is Illuminated
Feb 5
Waning Crescent
Feb 10
New
Feb 17
First Quarter
Feb 25
Full
Mar 4
Last Quarter

Hourly Weather History & Observations

Time (EET) Temp. Dew Point Humidity Pressure Visibility Wind Dir Wind Speed Gust Speed Precip Events Conditions
1:50 AM 50.0 °F 46.4 °F 87% 29.92 in - NNW 5.8 mph - N/A   Clear
4:50 AM 48.2 °F 44.6 °F 87% 29.89 in - NW 5.8 mph - N/A   Clear
5:20 AM 48.2 °F 46.4 °F 93% 29.89 in - NNW 6.9 mph - N/A   Clear
5:50 AM 48.2 °F 44.6 °F 87% 29.89 in - Calm Calm - N/A   Clear
6:20 AM 48.2 °F 44.6 °F 87% 29.89 in - Calm Calm - N/A   Clear
6:50 AM 48.2 °F 44.6 °F 87% 29.89 in - NNW 6.9 mph - N/A   Clear
7:20 AM 48.2 °F 44.6 °F 87% 29.89 in 5.0 mi NW 4.6 mph - N/A   Unknown
7:50 AM 46.4 °F 42.8 °F 87% 29.89 in 5.0 mi Calm Calm - N/A   Unknown
8:20 AM 48.2 °F 44.6 °F 87% 29.89 in 5.6 mi NW 4.6 mph - N/A   Mist
8:50 AM 51.8 °F 46.4 °F 82% 29.89 in 5.6 mi Calm Calm - N/A   Mist
9:20 AM 57.2 °F 48.2 °F 72% 29.89 in 5.6 mi Calm Calm - N/A   Mist
9:50 AM 59.0 °F 50.0 °F 72% 29.89 in 5.6 mi NNW 4.6 mph - N/A   Mist
10:20 AM 62.6 °F 50.0 °F 63% 29.89 in 5.6 mi NNW 4.6 mph - N/A   Mist
10:50 AM 64.4 °F 50.0 °F 59% 29.89 in 5.6 mi NW 4.6 mph - N/A   Mist
11:20 AM 66.2 °F 48.2 °F 52% 29.89 in 5.6 mi North 5.8 mph - N/A   Mist
11:50 AM 68.0 °F 46.4 °F 46% 29.89 in 5.6 mi NW 4.6 mph - N/A   Mist
12:20 PM 64.4 °F 48.2 °F 56% 29.86 in 5.0 mi SSE 5.8 mph - N/A   Smoke
12:50 PM 64.4 °F 46.4 °F 52% 29.86 in 5.0 mi SE 4.6 mph - N/A   Smoke
1:20 PM 64.4 °F 46.4 °F 52% 29.86 in 5.0 mi SE 4.6 mph - N/A   Smoke
1:50 PM 66.2 °F 46.4 °F 49% 29.83 in 5.0 mi SSE 4.6 mph - N/A   Smoke
2:20 PM 64.4 °F 50.0 °F 59% 29.83 in 5.0 mi South 6.9 mph - N/A   Smoke
2:50 PM 64.4 °F 50.0 °F 59% 29.83 in 5.0 mi SSE 6.9 mph - N/A   Smoke
3:20 PM 66.2 °F 48.2 °F 52% 29.83 in 5.0 mi SSE 8.1 mph - N/A   Unknown
3:50 PM 64.4 °F 50.0 °F 59% 29.83 in 5.0 mi SE 6.9 mph - N/A   Unknown
4:20 PM 66.2 °F 51.8 °F 60% 29.83 in 5.0 mi SE 6.9 mph - N/A   Partly Cloudy
4:50 PM 66.2 °F 48.2 °F 52% 29.83 in 5.0 mi West 5.8 mph - N/A   Partly Cloudy
5:20 PM 62.6 °F 46.4 °F 55% 29.83 in 5.0 mi Calm Calm - N/A   Partly Cloudy
5:50 PM 60.8 °F 46.4 °F 59% 29.83 in 6.2 mi Calm Calm - N/A   Partly Cloudy
6:20 PM 57.2 °F 46.4 °F 67% 29.86 in 6.2 mi Calm Calm - N/A   Partly Cloudy
6:50 PM 55.4 °F 46.4 °F 72% 29.86 in 6.2 mi Calm Calm - N/A   Partly Cloudy
7:20 PM 57.2 °F 48.2 °F 72% 29.86 in 6.2 mi Calm Calm - N/A   Partly Cloudy
7:50 PM 53.6 °F 46.4 °F 77% 29.86 in 6.2 mi Calm Calm - N/A   Partly Cloudy
8:20 PM 50.0 °F 46.4 °F 87% 29.86 in 6.2 mi Calm Calm - N/A   Partly Cloudy
8:50 PM 50.0 °F 46.4 °F 87% 29.86 in 6.2 mi Calm Calm - N/A   Partly Cloudy
10:50 PM 50.0 °F 46.4 °F 87% 29.86 in 6.2 mi Calm Calm - N/A   Scattered Clouds